User: anonymous   Login
Location: Trois-Rivi�res
(46.3500°N, 72.5500°W)
Time: 00:58:59
(UTC-04:00)
Language:

Tiangong 1 - Orbit

View from above orbital plane
View from above orbital plane
View from above satellite
View from above satellite

Ground track
Ground track

The orbit data is extracted from the following two-line orbital elements,

1 37820U 11053A   17293.86550926  .00042294  87831-5  15268-3 0  9991
2 37820  42.7550 145.9971 0020510 259.4708 281.4244 15.88509739347884
Epoch (UTC): 20 October 2017 20:46:20
Eccentricity: 0.0020510
inclination: 42.7550°
perigee height: 293 km
apogee height: 320 km
right ascension of ascending node: 145.9971°
argument of perigee: 259.4708°
revolutions per day: 15.88509739
mean anomaly at epoch: 281.4244°
orbit number at epoch: 34788

The dashed part of the orbit path shows where the satellite is in the earth's shadow,  

DLR